Notices

What's New in latest Release from April 7th, 2021:

- Updated Glossary, including Speed of Maximum Gust, and Total Hourly Precipitation

- Updated national and regional climate services offices contacts and prices information

- Addition of station inventory lists for 1981-2010, 1971-2000, and 1961-1990 Normals.

Please note that as of June 10, 2021 UTC dates are available for all years 2004-present, and DBA is working on populating the remaining years (2003 to 1953).

If you haven't already, please take our survey and provide feedback about our website: https://eccc.sondage-survey.ca/f/LanguageSelection.aspx?s=442ca660-fcf1-47c0-95a9-59707d6fd709

Hourly Data Report for December 04, 2004

TORONTO CITY
ONTARIO

43°40'00.000" N
79°24'00.000" W
112.50 m
6158355
71508
XTO

Download Data

Hourly Data (December 2004)
Hourly Data Report for December 4, 2004
TIME
LST
Temp Definition
°C
Dew Point Definition
°C
Rel Hum Definition
%
Precip. Amount Definition
mm

Wind Dir Definition
10's deg

Wind Spd Definition
km/h
Visibility Definition
km
Stn Press Definition
kPa
Hmdx Definition


Wind Chill Definition


Weather Definition


00:00 -2.4 -7.8 66   LegendMM LegendMM LegendMM 100.17     LegendNANA
01:00 -1.8 -6.9 68   LegendMM LegendMM LegendMM 100.04     LegendNANA
02:00 -0.9 -7.0 63   LegendMM LegendMM LegendMM 99.97     LegendNANA
03:00 -0.3 -5.3 69   LegendMM LegendMM LegendMM 99.87     LegendNANA
04:00 0.3 -3.6 75   LegendMM LegendMM LegendMM 99.80     LegendNANA
05:00 1.2 -2.0 79   LegendMM LegendMM LegendMM 99.75     LegendNANA
06:00 0.7 -2.4 80   LegendMM LegendMM LegendMM 99.74     LegendNANA
07:00 1.0 -1.5 83   LegendMM LegendMM LegendMM 99.72     LegendNANA
08:00 2.8 0.2 83   LegendMM LegendMM LegendMM 99.63     LegendNANA
09:00 3.2 0.4 82   LegendMM LegendMM LegendMM 99.52     LegendNANA
10:00 4.0 1.0 81   LegendMM LegendMM LegendMM 99.44     LegendNANA
11:00 4.1 0.7 78   LegendMM LegendMM LegendMM 99.31     LegendNANA
12:00 4.6 1.0 77   LegendMM LegendMM LegendMM 99.19     LegendNANA
13:00 5.3 1.1 74   LegendMM LegendMM LegendMM 98.96     LegendNANA
14:00 5.6 1.6 75   LegendMM LegendMM LegendMM 98.93     LegendNANA
15:00 6.2 1.8 73   LegendMM LegendMM LegendMM 98.87     LegendNANA
16:00 5.1 2.7 84   LegendMM LegendMM LegendMM 98.91     LegendNANA
17:00 5.1 2.8 85   LegendMM LegendMM LegendMM 98.99     LegendNANA
18:00 5.7 2.3 79   LegendMM LegendMM LegendMM 99.09     LegendNANA
19:00 6.2 1.8 73   LegendMM LegendMM LegendMM 99.15     LegendNANA
20:00 6.1 1.6 73   LegendMM LegendMM LegendMM 99.22     LegendNANA
21:00 6.0 1.8 74   LegendMM LegendMM LegendMM 99.29     LegendNANA
22:00 6.1 2.0 75   LegendMM LegendMM LegendMM 99.33     LegendNANA
23:00 5.8 2.1 77   LegendMM LegendMM LegendMM 99.44     LegendNANA

Notes on Data Quality.

Legend

  • E = Estimated
  • M = Missing
  • NA = Not Available*
  • [empty] = Indicates an unobserved value
Date modified: